Regional Weather Roundup
Issued by NWS Charleston, WV

Home | Current Version | Previous Version | Graphics & Text | Print | Product List | Glossary On
Versions: 1 2 3 4 5 6 7 8 9 10 11 12 13 14 15 16 17 18 19 20 21 22 23 24 25 26 27 28 29 30 31 32 33 34 35 36 37 38 39 40 41 42 43 44 45 46 47 48 49 50
000
ASUS41 KRLX 230910
RWRRLX
West Virginia Regional Weather Roundup
National Weather Service Charleston WV
500 AM EDT TUE SEP 23 2014

Note: "fair" indicates few or no clouds below 12,000 feet with no
significant weather and/or obstructions to visibility.

WVZ003-231000-
Northern Panhandle of West Virginia

CITY           SKY/WX    TMP DP  RH WIND       PRES   REMARKS
WHEELING       CLEAR     41  39  93 CALM      30.30R FOG
$$

WVZ009-231000-
Northwest West Virginia

CITY           SKY/WX    TMP DP  RH WIND       PRES   REMARKS
PARKERSBURG    CLOUDY    42  42 100 CALM      30.33R
$$

WVZ006-231000-
Western West Virginia

CITY           SKY/WX    TMP DP  RH WIND       PRES   REMARKS
HUNTINGTON     CLEAR     45  44  97 CALM      30.28R
$$

WVZ015-231000-
West Central West Virginia

CITY           SKY/WX    TMP DP  RH WIND       PRES   REMARKS
CHARLESTON     FOG       46  46 100 CALM      30.28R VSB 1/4
$$

WVZ031-231000-
North Central West Virginia

CITY           SKY/WX    TMP DP  RH WIND       PRES   REMARKS
CLARKSBURG     FOG       40  40 100 CALM      30.30S VSB 1/4
MORGANTOWN     PTCLDY    43  39  86 CALM      30.31S FOG
$$

WVZ035-042-045-231000-
South Central West Virginia

CITY           SKY/WX    TMP DP  RH WIND       PRES   REMARKS
BECKLEY        CLEAR     41  39  93 CALM      30.28R
BLUEFIELD      PTCLDY    45  41  86 CALM      30.27S
LEWISBURG      FOG       39  38  94 CALM      30.29R VSB 1/4
$$

WVZ047-231000-
Northern Mountains of West Virginia

CITY           SKY/WX    TMP DP  RH WIND       PRES   REMARKS
ELKINS         FOG       42  42 100 CALM      30.31R VSB 1/2
$$

WVZ052-231000-
Eastern Panhandle of West Virginia

CITY           SKY/WX    TMP DP  RH WIND       PRES   REMARKS
MARTINSBURG    CLEAR     47  38  71 CALM      30.29R
PETERSBURG     CLEAR     37  35  93 CALM      30.31S FOG
$$



USA.gov is the U.S. government's official web portal to all federal, state and local government web resources and services.